Joplin, MO

8:28 PM CDT on October 19, 2019 (GMT -0500)
Joplin Regional

Weather History for KJLN - August, 2019

Change the Weather History Date:

Tuesday, August 13, 2019

  Actual Average Record
Temperature  
Mean Temperature 81 °F 80 °F  
Max Temperature 88 °F 92 °F 103 °F (1956)
Min Temperature 73 °F 69 °F 49 °F (2004)
Degree Days  
Heating Degree Days 0 0  
Month to date heating degree days 0 0  
Since 1 June heating degree days 1 5  
Since 1 July heating degree days 0 0  
Cooling Degree Days 16 15  
Month to date cooling degree days 187 206  
Year to date cooling degree days 1038 1177  
Since 1 June cooling degree days 885 997  
Growing Degree Days 30 (Base 50)    
Moisture  
Dew Point 73 °F    
Average Humidity 79    
Maximum Humidity 94    
Minimum Humidity 63    
Precipitation  
Precipitation T in 0.10 in 1.97 in (1982)
Month to date precipitation 2.24 1.32  
Year to date precipitation 45.15 28.94  
Sea Level Pressure  
Sea Level Pressure 29.93 in    
Wind  
Wind Speed 4 mph (NW)    
Max Wind Speed 17 mph    
Max Gust Speed 25 mph    
Visibility 10 miles    
Events      
T = Trace of Precipitation, MM = Missing Value Source: NWS Daily Summary

Daily Weather History Graph

Daily Weather History Graph

Search for Another Location

Airport or City:

Astronomy

Aug. 13, 2019 Rise Set
Actual Time 6:32 AM CDT 8:12 PM CDT
Civil Twilight 6:04 AM CDT 8:40 PM CDT
Nautical Twilight 5:31 AM CDT 9:13 PM CDT
Astronomical Twilight 4:55 AM CDT 9:49 PM CDT
Moon 7:25 PM CDT (8/13) 4:38 AM CDT (8/13)
Length of Visible Light 14h 35m
Length of Day
13h 39m
Waxing Gibbous, 97% of the Moon is Illuminated
Aug 13
Waxing Gibbous
Aug 15
Full
Aug 23
Last Quarter
Aug 30
New
Sep 5
First Quarter

Hourly Weather History & Observations

Time (CDT) Temp. Heat Index Dew Point Humidity Pressure Visibility Wind Dir Wind Speed Gust Speed Precip Events Conditions
12:53 AM 82.0 °F 87.4 °F 73.0 °F 74% 29.85 in 10.0 mi WNW 8.1 mph - N/A   Clear
1:53 AM 77.0 °F - 70.0 °F 79% 29.87 in 10.0 mi Calm Calm - 0.00 in   Clear
2:53 AM 73.9 °F - 70.0 °F 87% 29.83 in 10.0 mi South 6.9 mph - N/A   Clear
3:53 AM 75.0 °F - 71.1 °F 87% 29.85 in 10.0 mi SSW 5.8 mph - N/A   Clear
4:53 AM 75.9 °F - 71.1 °F 85% 29.88 in 10.0 mi West 5.8 mph - N/A   Clear
5:53 AM 75.9 °F - 71.1 °F 85% 29.88 in 10.0 mi NNW 3.5 mph - N/A   Clear
6:53 AM 75.0 °F - 71.1 °F 87% 29.90 in 10.0 mi Variable 3.5 mph - N/A   Clear
7:53 AM 77.0 °F - 72.0 °F 84% 29.91 in 10.0 mi Calm Calm - N/A   Clear
8:53 AM 79.0 °F - 72.0 °F 79% 29.93 in 10.0 mi NW 3.5 mph - N/A   Clear
9:53 AM 82.9 °F 90.2 °F 75.0 °F 77% 29.94 in 10.0 mi NNW 6.9 mph - N/A   Clear
10:53 AM 81.0 °F 86.7 °F 75.0 °F 82% 29.97 in 10.0 mi NW 5.8 mph - N/A   Clear
11:53 AM 81.0 °F 86.7 °F 75.0 °F 82% 29.98 in 10.0 mi NW 8.1 mph - N/A   Scattered Clouds
12:53 PM 82.0 °F 87.9 °F 73.9 °F 76% 29.97 in 10.0 mi NW 5.8 mph - N/A   Clear
1:53 PM 82.0 °F 87.9 °F 73.9 °F 76% 29.96 in 10.0 mi NNW 5.8 mph - N/A   Clear
2:53 PM 84.0 °F 91.2 °F 73.9 °F 72% 29.96 in 10.0 mi NNW 9.2 mph - N/A   Clear
3:53 PM 84.9 °F 93.3 °F 75.0 °F 72% 29.96 in 10.0 mi NNW 5.8 mph - N/A   Clear
4:53 PM 87.1 °F 96.3 °F 75.0 °F 67% 29.94 in 10.0 mi NW 6.9 mph - N/A   Partly Cloudy
5:53 PM 88.0 °F 97.5 °F 75.0 °F 65% 29.94 in 10.0 mi NW 8.1 mph - N/A   Scattered Clouds
6:53 PM 87.1 °F 94.5 °F 73.0 °F 63% 29.93 in 10.0 mi NNW 5.8 mph - N/A   Clear
7:53 PM 84.0 °F 90.2 °F 73.0 °F 69% 29.93 in 10.0 mi Calm Calm - N/A   Clear
8:53 PM 78.1 °F - 73.9 °F 87% 29.95 in 10.0 mi Calm Calm - N/A   Clear
9:53 PM 77.0 °F - 73.9 °F 90% 29.98 in 10.0 mi Calm Calm - N/A   Clear
10:53 PM 75.9 °F - 73.9 °F 94% 30.00 in 10.0 mi Calm Calm - N/A   Clear
11:53 PM 75.0 °F - 73.0 °F 94% 29.99 in 9.0 mi Calm Calm - N/A   Clear